Weather History for KRQB - December, 2013

Change the Weather History Date:

Thursday, December 12, 2013

  Actual Average Record
Temperature  
Mean Temperature 12 °F -  
Max Temperature 21 °F 36 °F 57 °F (1991)
Min Temperature 4 °F 20 °F -2 °F (1989)
Degree Days  
Heating Degree Days 53    
Moisture  
Dew Point 8 °F    
Average Humidity 81    
Maximum Humidity 86    
Minimum Humidity 74    
Precipitation  
Precipitation 0.00 in - - ()
Sea Level Pressure  
Sea Level Pressure 30.20 in    
Wind  
Wind Speed 6 mph (WSW)    
Max Wind Speed 17 mph    
Max Gust Speed 25 mph    
Visibility 5 miles    
Events Snow    
Averages and records for this station are not official NWS values.
T = Trace of Precipitation, MM = Missing Value Source: NWS Daily Summary

Daily Weather History Graph

Daily Weather History Graph

Search for Another Location

Airport or City:

Trip Planner

Search our weather history database for the weather conditions in past years. The results will help you decide how hot, cold, wet, or windy it might be!

Date:

Astronomy

Dec. 12, 2013 Rise Set
Actual Time 8:06 AM EST 5:05 PM EST
Civil Twilight 7:33 AM EST 5:37 PM EST
Nautical Twilight 6:57 AM EST 6:14 PM EST
Astronomical Twilight 6:22 AM EST 6:48 PM EST
Moon 2:17 PM EST (12/12) 3:21 AM EST (12/12)
Length of Visible Light 10h 03m
Length of Day
8h 58m
Waxing Gibbous, 80% of the Moon is Illuminated
Dec 12
Waxing Gibbous
Dec 17
Full
Dec 25
Last Quarter
Jan 1
New
Jan 7
First Quarter

Hourly Weather History & Observations

Time (EST) Temp. Windchill Dew Point Humidity Pressure Visibility Wind Dir Wind Speed Gust Speed Precip Events Conditions
12:15 AM 6.8 °F -0.1 °F 2.8 °F 84% 30.36 in 0.8 mi WSW 3.5 mph - N/A Snow Snow
12:35 AM 6.8 °F -0.1 °F 2.7 °F 83% 30.36 in 1.5 mi WSW 3.5 mph - N/A Snow Light Snow
12:55 AM 6.8 °F - 2.7 °F 83% 30.35 in 1.8 mi Calm Calm - N/A Snow Light Snow
1:15 AM 5.4 °F - 1.4 °F 84% 30.34 in 0.8 mi Calm Calm - N/A Snow Snow
1:35 AM 4.3 °F - 0.1 °F 83% 30.33 in 1.8 mi Calm Calm - N/A Snow Light Snow
1:55 AM 5.2 °F -5.4 °F 1.8 °F 86% 30.34 in 4.0 mi West 5.8 mph - N/A Snow Light Snow
2:15 AM 5.9 °F -4.5 °F 1.4 °F 82% 30.33 in 5.0 mi SW 5.8 mph - N/A Snow Light Snow
2:35 AM 6.6 °F -2.2 °F 2.3 °F 82% 30.34 in 2.0 mi WSW 4.6 mph - N/A Snow Light Snow
2:55 AM 7.5 °F -5.0 °F 3.2 °F 82% 30.33 in 4.0 mi WSW 8.1 mph - N/A Snow Light Snow
3:15 AM 7.7 °F -3.7 °F 3.2 °F 82% 30.33 in 3.0 mi WSW 6.9 mph - N/A Snow Light Snow
3:35 AM 8.1 °F -3.2 °F 3.6 °F 82% 30.33 in 4.0 mi WSW 6.9 mph - N/A Snow Light Snow
3:55 AM 8.4 °F -3.9 °F 3.7 °F 81% 30.32 in 4.0 mi WSW 8.1 mph - N/A Snow Light Snow
4:15 AM 9.0 °F -5.9 °F 3.9 °F 80% 30.31 in 5.0 mi West 11.5 mph 17.3 mph N/A Snow Light Snow
4:35 AM 8.6 °F -5.5 °F 3.2 °F 79% 30.31 in 5.0 mi West 10.4 mph - N/A Snow Light Snow
4:55 AM 8.2 °F -4.1 °F 2.8 °F 79% 30.31 in 7.0 mi West 8.1 mph 17.3 mph N/A Snow Light Snow
5:15 AM 8.2 °F -4.1 °F 2.3 °F 77% 30.30 in 10.0 mi West 8.1 mph - N/A   Overcast
5:35 AM 7.9 °F -6.4 °F 2.1 °F 77% 30.29 in 10.0 mi West 10.4 mph - N/A   Overcast
5:55 AM 7.7 °F -3.7 °F 2.1 °F 78% 30.29 in 10.0 mi WSW 6.9 mph - N/A   Mostly Cloudy
6:15 AM 7.3 °F 0.5 °F 1.9 °F 79% 30.28 in 7.0 mi WSW 3.5 mph - N/A Snow Light Snow
6:35 AM 6.4 °F -0.5 °F 1.8 °F 81% 30.28 in 7.0 mi SW 3.5 mph - N/A Snow Light Snow
6:55 AM 6.3 °F - 2.1 °F 83% 30.27 in 10.0 mi Calm Calm - N/A Snow Light Snow
7:15 AM 6.4 °F - 2.5 °F 84% 30.27 in 10.0 mi Calm Calm - N/A Snow Light Snow
7:35 AM 6.1 °F -2.8 °F 2.3 °F 84% 30.26 in 7.0 mi South 4.6 mph - N/A Snow Light Snow
7:55 AM 6.6 °F -2.2 °F 3.0 °F 85% 30.25 in 4.0 mi South 4.6 mph - N/A Snow Light Snow
8:14 AM 7.3 °F 0.5 °F 3.7 °F 85% 30.24 in 2.0 mi South 3.5 mph - N/A Snow Light Snow
8:35 AM 9.3 °F -0.5 °F 5.9 °F 86% 30.24 in 1.0 mi WSW 5.8 mph - N/A Snow Light Snow
8:55 AM 10.4 °F 0.8 °F 6.1 °F 83% 30.23 in 1.2 mi SW 5.8 mph - N/A Snow Light Snow
9:14 AM 11.1 °F 1.7 °F 6.8 °F 83% 30.23 in 1.0 mi WSW 5.8 mph - N/A Snow Light Snow
9:35 AM 11.7 °F 5.5 °F 7.5 °F 83% 30.22 in 0.8 mi SW 3.5 mph - N/A Snow Light Snow
9:55 AM 12.2 °F - 7.7 °F 82% 30.21 in 0.8 mi Calm Calm - N/A Snow Light Snow
10:14 AM 13.6 °F 0.7 °F 9.0 °F 82% 30.21 in 1.5 mi WSW 10.4 mph - N/A Snow Light Snow
10:35 AM 14.7 °F 3.8 °F 10.0 °F 82% 30.19 in 1.2 mi WSW 8.1 mph - N/A Snow Light Snow
10:55 AM 15.6 °F 4.0 °F 10.6 °F 80% 30.19 in 1.0 mi SW 9.2 mph - N/A Snow Light Snow
11:14 AM 16.7 °F 5.3 °F 11.7 °F 81% 30.18 in 1.0 mi SW 9.2 mph - N/A Snow Light Snow
11:35 AM 17.2 °F 6.0 °F 12.0 °F 80% 30.17 in 0.5 mi WSW 9.2 mph 17.3 mph N/A Snow Light Snow
11:55 AM 17.4 °F 4.1 °F 12.4 °F 81% 30.16 in 1.2 mi WSW 12.7 mph 18.4 mph N/A Snow Light Snow
12:14 PM 17.6 °F 2.7 °F 12.0 °F 79% 30.14 in 1.8 mi WSW 16.1 mph 20.7 mph N/A Snow Light Snow
12:35 PM 17.4 °F 3.5 °F 11.7 °F 78% 30.14 in 1.0 mi West 13.8 mph 23.0 mph N/A Snow Light Snow
12:55 PM 16.2 °F 0.3 °F 10.2 °F 77% 30.14 in 1.2 mi West 17.3 mph 25.3 mph N/A Snow Light Snow
1:15 PM 16.0 °F 0.1 °F 9.9 °F 77% 30.14 in 3.0 mi West 17.3 mph 21.9 mph N/A Snow Light Snow
1:35 PM 15.6 °F 0.6 °F 9.1 °F 76% 30.15 in 3.0 mi West 15.0 mph 24.2 mph N/A Snow Light Snow
1:55 PM 15.6 °F 4.0 °F 9.5 °F 77% 30.14 in 1.8 mi West 9.2 mph - N/A Snow Light Snow
2:15 PM 15.4 °F -0.1 °F 8.6 °F 74% 30.14 in 3.0 mi WSW 16.1 mph 23.0 mph N/A Snow Light Snow
2:35 PM 15.4 °F 2.3 °F 8.6 °F 74% 30.14 in 4.0 mi West 11.5 mph 19.6 mph N/A Snow Light Snow
2:55 PM 15.4 °F 2.3 °F 9.1 °F 76% 30.13 in 3.0 mi West 11.5 mph 20.7 mph N/A Snow Light Snow
3:15 PM 15.6 °F 3.2 °F 9.5 °F 77% 30.13 in 3.0 mi West 10.4 mph 19.6 mph N/A Snow Light Snow
3:35 PM 15.6 °F 2.5 °F 9.7 °F 77% 30.13 in 2.0 mi West 11.5 mph - N/A Snow Light Snow
3:55 PM 15.4 °F 3.8 °F 10.4 °F 80% 30.13 in 2.0 mi West 9.2 mph - N/A Snow Light Snow
4:15 PM 15.4 °F 5.6 °F 10.4 °F 80% 30.13 in 1.5 mi West 6.9 mph - N/A Snow Light Snow
4:35 PM 15.4 °F 5.6 °F 10.8 °F 82% 30.12 in 1.8 mi WSW 6.9 mph - N/A Snow Light Snow
4:55 PM 15.4 °F 5.6 °F 10.9 °F 82% 30.13 in 2.0 mi WSW 6.9 mph - N/A Snow Light Snow
5:15 PM 15.6 °F 7.0 °F 11.1 °F 82% 30.13 in 2.0 mi West 5.8 mph - N/A Snow Light Snow
5:35 PM 15.6 °F 7.0 °F 11.3 °F 83% 30.13 in 2.5 mi WSW 5.8 mph - N/A Snow Light Snow
5:55 PM 15.8 °F 6.1 °F 11.7 °F 84% 30.13 in 3.0 mi West 6.9 mph - N/A Snow Light Snow
6:15 PM 15.8 °F 6.1 °F 11.8 °F 84% 30.12 in 5.0 mi WSW 6.9 mph - N/A Snow Light Snow
6:35 PM 16.5 °F 5.1 °F 12.2 °F 83% 30.12 in 10.0 mi West 9.2 mph - N/A Snow Light Snow
6:55 PM 16.7 °F 5.3 °F 12.6 °F 84% 30.12 in 10.0 mi West 9.2 mph - N/A Snow Light Snow
7:15 PM 17.1 °F 5.8 °F 12.7 °F 83% 30.13 in 10.0 mi WSW 9.2 mph - N/A Snow Light Snow
7:35 PM 17.4 °F 7.1 °F 12.9 °F 83% 30.12 in 10.0 mi WSW 8.1 mph - N/A Snow Light Snow
7:54 PM 18.0 °F 6.9 °F 13.1 °F 81% 30.11 in 10.0 mi West 9.2 mph - N/A   Overcast
8:15 PM 18.3 °F 6.6 °F 13.6 °F 82% 30.11 in 10.0 mi West 10.4 mph - N/A Snow Light Snow
8:35 PM 18.7 °F 7.0 °F 14.0 °F 82% 30.12 in 10.0 mi West 10.4 mph - N/A   Overcast
8:54 PM 18.5 °F 8.4 °F 14.0 °F 83% 30.11 in 10.0 mi West 8.1 mph - N/A   Overcast
9:15 PM 18.9 °F 9.8 °F 14.4 °F 83% 30.09 in 7.0 mi West 6.9 mph - N/A   Overcast
9:35 PM 19.0 °F 10.0 °F 14.5 °F 83% 30.09 in 10.0 mi WSW 6.9 mph - N/A   Overcast
9:54 PM 19.0 °F 10.0 °F 14.5 °F 83% 30.09 in 10.0 mi West 6.9 mph - N/A   Overcast
10:15 PM 19.4 °F 11.5 °F 14.9 °F 83% 30.08 in 10.0 mi West 5.8 mph - N/A   Overcast
10:35 PM 19.8 °F 10.8 °F 14.9 °F 81% 30.08 in 10.0 mi West 6.9 mph - N/A   Overcast
10:54 PM 19.9 °F 11.1 °F 14.9 °F 81% 30.08 in 10.0 mi West 6.9 mph - N/A   Overcast
11:15 PM 20.3 °F 11.5 °F 14.9 °F 80% 30.08 in 10.0 mi West 6.9 mph - N/A   Overcast
11:35 PM 20.3 °F 10.6 °F 15.3 °F 81% 30.08 in 10.0 mi West 8.1 mph - N/A   Overcast
11:54 PM 20.3 °F 10.6 °F 15.3 °F 81% 30.07 in 10.0 mi West 8.1 mph - N/A   Overcast